sat.trackr.live / text

‹ back to catalog

STARLINK-3251

NORAD 49729 · 2021-115F

PAYLOAD ACTIVE UNKNOWN

§ Identity

Operator
Country
US
Launch date
2021-12-02
Launch site
AFETR
Launch vehicle
Mass (kg)
RCS (m²)

Purposes: comms

External: N2YO · Heavens-Above · Gunter

§ Orbital elements

Epoch: 2026-05-25T01:37:03.221760Z

Period
95.44 min
Inclination
53.2136°
Eccentricity
0.0001194
Mean motion
15.08836013 rev/d
Perigee alt
538.9 km
Apogee alt
540.6 km
Semi-major
6,917.9 km
B*
1.4124e-5
RAAN
176.1338°
Arg perigee
77.6566°
Mean anomaly
282.4559°
Rev number
24,692

§ Raw data

STARLINK-32511 49729U 21115F   26145.06739840 -.00000063  00000+0  14124-4 0  99912 49729  53.2136 176.1338 0001194  77.6566 282.4559 15.08836013246927

JSON: /api/v1/satellites/49729 · /tle

For live sub-satellite position, see the globe view (requires WebGL).

§ Visibility from observer

Set your observer location to see the next 7 days of passes ≥ 10°. The values pass through the URL so the page stays shareable.

No JS? Fill the form by hand. The geolocation button needs JavaScript.